Regional Weather Roundup
Issued by NWS Spokane, WA

Home | Current Version | Previous Version | Text Only | Print | Product List | Glossary On
Versions: 1 2 3 4 5 6 7 8 9 10 11 12 13 14 15 16 17 18 19 20 21 22 23 24 25 26 27 28 29 30 31 32 33 34 35 36 37 38 39 40 41 42 43 44 45 46 47 48 49 50
000
NZUS01 KOTX 231110
RWROTX
EASTERN WASHINGTON/NORTHERN IDAHO ROUNDUP
NATIONAL WEATHER SERVICE, SPOKANE WA
400 AM PDT SAT AUG 23 2014

Note: "fair" indicated few or no clouds below 12,000 feet with no
significant weather and/or obstructions to visibility.

...NORTHEAST WASHINGTON AND NORTHERN IDAHO PANHANDLE...

CITY           SKY/WX    TMP DP  RH WIND       PRES   REMARKS
SPOKANE INTL   PTCLDY    57  44  62 N6        30.11R
SPOKANE DOWNTO CLEAR     54  46  74 CALM      30.11R
COEUR D ALENE  CLEAR     55  43  62 N12       30.12S
DEER PARK      CLEAR     57  44  62 NE8       30.12R
SANDPOINT      PTCLDY    57  41  54 NE14G20   30.14R

...SOUTHEAST WASHINGTON AND SOUTHERN IDAHO PANHANDLE...

CITY           SKY/WX    TMP DP  RH WIND       PRES   REMARKS
WALLA WALLA    PTCLDY    59  51  75 S6        30.06R
PULLMAN/MOSCOW MOCLDY    53  49  86 CALM      30.09S
LEWISTON       CLEAR     60  56  86 S3        30.06R
LOWELL           N/A     56  55  97 CALM      30.08S

...COLUMBIA BASIN...

CITY           SKY/WX    TMP DP  RH WIND       PRES   REMARKS
EPHRATA        CLEAR     61  49  64 N7        30.09R
MOSES LAKE     CLEAR     58  50  75 N10       30.09R
TRI CITIES     CLEAR     57  52  83 NW6       30.05S
HERMISTON      CLEAR     66  51  58 N8        30.05R
PENDLETON      CLEAR     54  45  71 W5        30.06S

...EAST SLOPES CASCADES...

CITY           SKY/WX    TMP DP  RH WIND       PRES   REMARKS
THE DALLES     CLEAR     63  54  72 NW9       30.07R
YAKIMA         CLEAR     57  51  80 NW7       30.10S
ELLENSBURG     CLEAR     53  48  83 E6        30.12R
WENATCHEE      CLEAR     61  51  70 W7        30.12R
OMAK           CLEAR     59  51  75 NW9       30.13S

...SOUTHERN BRITISH COLUMBIA...

CITY           SKY/WX    TMP DP  RH WIND       PRES   REMARKS
PENTICTON      PTCLDY    59  52  77 N6        30.16S
CRANBROOK      CLOUDY    52  46  82 VRB2      30.23R

...WESTERN MONTANA...

CITY           SKY/WX    TMP DP  RH WIND       PRES   REMARKS
MISSOULA       CLOUDY    55  44  66 NW12      30.12S

...NEIGHBORING CITIES...

CITY           SKY/WX    TMP DP  RH WIND       PRES   REMARKS
SEATTLE        CLEAR     60  55  83 SE3       30.12S
CALGARY        MOCLDY    46  45  93 S3        30.32F



USA.gov is the U.S. government's official web portal to all federal, state and local government web resources and services.